| time (UTC) | temp F | wind direction | speed knots | gust knots | rain 1hr in | rain 24hr in | rain mn in | humidity % | barometer mb |
| 20260507094121 | 39 | 289 | 1.7 | 4.3 | 0.00 | 0.00 | 0.00 | 100 | |
| 20260507093621 | 39 | 299 | 3.5 | 4.3 | 0.00 | 0.00 | 0.00 | 100 | |
| 20260507093121 | 39 | 282 | 2.6 | 4.3 | 0.00 | 0.00 | 0.00 | 100 | |
| 20260507092621 | 39 | 275 | 2.6 | 3.5 | 0.00 | 0.00 | 0.00 | 100 | |
| 20260507092121 | 39 | 288 | 1.7 | 4.3 | 0.00 | 0.00 | 0.00 | 100 | |
| 20260507091621 | 39 | 278 | 4.3 | 4.3 | 0.00 | 0.00 | 0.00 | 100 | |
| 20260507091121 | 39 | 282 | 4.3 | 4.3 | 0.00 | 0.00 | 0.00 | 100 | |
| 20260507090621 | 40 | 274 | 2.6 | 4.3 | 0.00 | 0.00 | 0.00 | 100 | |
| 20260507090121 | 40 | 291 | 3.5 | 6.1 | 0.00 | 0.00 | 0.00 | 100 | |
| 20260507085621 | 40 | 272 | 0.9 | 3.5 | 0.00 | 0.00 | 0.00 | 100 | |
| 20260507085121 | 40 | 289 | 2.6 | 4.3 | 0.00 | 0.00 | 0.00 | 100 | |
| 20260507084622 | 40 | 292 | 1.7 | 3.5 | 0.00 | 0.00 | 0.00 | 100 | |
| 20260507084122 | 40 | 277 | 1.7 | 3.5 | 0.00 | 0.00 | 0.00 | 100 | |
| 20260507083626 | 40 | 282 | 2.6 | 3.5 | 0.00 | 0.00 | 0.00 | 100 | |
| 20260507083121 | 40 | 288 | 1.7 | 3.5 | 0.00 | 0.00 | 0.00 | 100 | |
| 20260507082621 | 39 | 293 | 3.5 | 3.5 | 0.00 | 0.00 | 0.00 | 100 | |
| 20260507082122 | 39 | 282 | 2.6 | 2.6 | 0.00 | 0.00 | 0.00 | 100 | |
| 20260507081624 | 39 | 288 | 1.7 | 2.6 | 0.00 | 0.00 | 0.00 | 100 | |
| 20260507081121 | 39 | 281 | 1.7 | 4.3 | 0.00 | 0.00 | 0.00 | 100 | |
| 20260507080621 | 39 | 271 | 0.9 | 2.6 | 0.00 | 0.00 | 0.00 | 100 | |
| 20260507080121 | 40 | 278 | 1.7 | 2.6 | 0.00 | 0.00 | 0.00 | 100 | |
| 20260507075621 | 40 | 303 | 1.7 | 3.5 | 0.00 | 0.01 | 0.00 | 100 | |
| 20260507075121 | 40 | 275 | 1.7 | 4.3 | 0.00 | 0.01 | 0.00 | 100 | |
| 20260507074621 | 41 | 309 | 1.7 | 4.3 | 0.00 | 0.01 | 0.00 | 100 | |
| 20260507074121 | 41 | 284 | 2.6 | 4.3 | 0.00 | 0.01 | 0.00 | 100 | |
| 20260507073621 | 41 | 275 | 2.6 | 5.2 | 0.00 | 0.01 | 0.00 | 100 | |
| 20260507073121 | 41 | 265 | 1.7 | 3.5 | 0.00 | 0.01 | 0.00 | 100 | |
| 20260507072621 | 41 | 270 | 3.5 | 4.3 | 0.00 | 0.01 | 0.00 | 100 | |
| 20260507072121 | 41 | 291 | 1.7 | 4.3 | 0.00 | 0.01 | 0.00 | 100 | |
| 20260507071625 | 42 | 284 | 1.7 | 3.5 | 0.00 | 0.01 | 0.00 | 100 | |
| 20260507071121 | 42 | 277 | 1.7 | 6.1 | 0.00 | 0.01 | 0.00 | 100 | |
| 20260507070621 | 41 | 260 | 1.7 | 4.3 | 0.00 | 0.01 | 0.00 | 100 | |
| 20260507070121 | 41 | 293 | 2.6 | 3.5 | 0.00 | 0.01 | 0.00 | 100 | |
| 20260507065621 | 41 | 281 | 2.6 | 5.2 | 0.00 | 0.02 | 0.00 | 100 | |
| 20260507065123 | 42 | 270 | 3.5 | 4.3 | 0.00 | 0.02 | 0.00 | 100 | |
| 20260507064621 | 42 | 251 | 2.6 | 5.2 | 0.00 | 0.02 | 0.00 | 100 | |
| 20260507064121 | 43 | 272 | 3.5 | 7.0 | 0.00 | 0.02 | 0.00 | 100 | |
| 20260507063621 | 42 | 271 | 4.3 | 6.1 | 0.00 | 0.02 | 0.00 | 100 | |
| 20260507063121 | 42 | 270 | 4.3 | 5.2 | 0.00 | 0.02 | 0.00 | 100 | |
| 20260507062621 | 43 | 275 | 3.5 | 5.2 | 0.00 | 0.02 | 0.00 | 100 | |
| 20260507062121 | 42 | 270 | 3.5 | 5.2 | 0.00 | 0.02 | 0.00 | 100 | |
| 20260507061623 | 42 | 264 | 4.3 | 5.2 | 0.00 | 0.02 | 0.00 | 100 | |
| 20260507061121 | 42 | 268 | 3.5 | 4.3 | 0.00 | 0.02 | 0.00 | 100 | |
| 20260507060621 | 42 | 255 | 2.6 | 4.3 | 0.00 | 0.02 | 0.00 | 100 | |
| 20260507060124 | 41 | 250 | 1.7 | 3.5 | 0.00 | 0.02 | 0.00 | 100 | |
| 20260507055802 | 42 | 282 | 1.7 | 2.6 | 0.00 | 0.07 | 0.00 | 100 | |
| 20260507055625 | 42 | 282 | 1.7 | 2.6 | 0.00 | 0.07 | 0.00 | 100 | |
| 20260507055121 | 42 | 270 | 0.9 | 2.6 | 0.00 | 0.07 | 0.00 | 100 | |
| 20260507054623 | 42 | 274 | 1.7 | 4.3 | 0.00 | 0.07 | 0.00 | 100 | |
| 20260507054121 | 42 | 278 | 1.7 | 3.5 | 0.00 | 0.07 | 0.00 | 100 | |
| 20260507053621 | 42 | 277 | 1.7 | 3.5 | 0.00 | 0.07 | 0.00 | 100 | |
| 20260507053121 | 42 | 270 | 1.7 | 2.6 | 0.00 | 0.07 | 0.00 | 100 | |
| 20260507052621 | 42 | 265 | 1.7 | 3.5 | 0.00 | 0.07 | 0.00 | 100 | |
| 20260507052123 | 42 | 262 | 3.5 | 3.5 | 0.00 | 0.07 | 0.00 | 100 | |
| 20260507051626 | 43 | 265 | 1.7 | 3.5 | 0.00 | 0.07 | 0.00 | 100 | |
| 20260507051121 | 43 | 251 | 0.9 | 4.3 | 0.00 | 0.07 | 0.00 | 100 | |
| 20260507050621 | 42 | 261 | 1.7 | 2.6 | 0.00 | 0.07 | 0.00 | 100 | |
| 20260507050121 | 42 | 274 | 0.0 | 0.0 | 0.00 | 0.07 | 0.00 | 100 | |
| 20260507045621 | 41 | 274 | 0.0 | 0.0 | 0.00 | 0.15 | 0.00 | 100 | |
| 20260507045121 | 41 | 274 | 0.0 | 0.0 | 0.00 | 0.15 | 0.00 | 100 | |
| 20260507044621 | 41 | 274 | 0.0 | 0.0 | 0.00 | 0.15 | 0.00 | 100 | |
| 20260507044121 | 41 | 274 | 0.0 | 0.0 | 0.00 | 0.15 | 0.00 | 100 | |
| 20260507043621 | 41 | 274 | 0.0 | 0.0 | 0.00 | 0.15 | 0.00 | 100 | |
| 20260507043121 | 41 | 274 | 0.0 | 0.0 | 0.00 | 0.15 | 0.00 | 100 | |
| 20260507042622 | 41 | 274 | 0.0 | 0.0 | 0.00 | 0.15 | 0.00 | 100 | |
| 20260507042121 | 42 | 274 | 0.0 | 0.0 | 0.00 | 0.15 | 0.00 | 100 | |
| 20260507041624 | 42 | 274 | 0.0 | 0.0 | 0.00 | 0.15 | 0.00 | 100 | |
| 20260507041121 | 41 | 274 | 0.0 | 0.0 | 0.00 | 0.15 | 0.00 | 100 | |
| 20260507040621 | 41 | 274 | 0.0 | 0.0 | 0.00 | 0.15 | 0.00 | 100 | |
| 20260507040501 | 41 | 274 | 0.0 | 0.0 | 0.00 | 0.15 | 0.00 | 100 | |
| 20260507040121 | 41 | 274 | 0.0 | 0.0 | 0.00 | 0.15 | 0.00 | 100 | |
| 20260507035625 | 40 | 274 | 0.0 | 0.0 | 0.00 | 0.22 | 0.21 | 100 | |
| 20260507035121 | 40 | 274 | 0.0 | 0.0 | 0.00 | 0.22 | 0.21 | 100 | |
| 20260507034621 | 40 | 274 | 0.0 | 0.0 | 0.00 | 0.22 | 0.21 | 100 | |
| 20260507034121 | 40 | 274 | 0.0 | 0.0 | 0.00 | 0.22 | 0.21 | 100 | |
| 20260507033621 | 40 | 274 | 0.0 | 0.0 | 0.00 | 0.22 | 0.21 | 100 | |
| 20260507033122 | 40 | 274 | 0.0 | 0.0 | 0.00 | 0.22 | 0.21 | 100 | |
| 20260507032621 | 41 | 274 | 0.0 | 0.0 | 0.00 | 0.22 | 0.21 | 100 | |
| 20260507032121 | 41 | 274 | 0.0 | 0.0 | 0.00 | 0.22 | 0.21 | 100 | |
| 20260507031621 | 41 | 274 | 0.0 | 0.0 | 0.00 | 0.22 | 0.21 | 100 | |
| 20260507031121 | 41 | 274 | 0.0 | 0.0 | 0.00 | 0.22 | 0.21 | 100 | |
| 20260507030621 | 42 | 274 | 0.0 | 0.0 | 0.00 | 0.22 | 0.21 | 100 | |
| 20260507030121 | 41 | 274 | 0.0 | 0.0 | 0.00 | 0.22 | 0.21 | 100 | |
| 20260507025621 | 41 | 274 | 0.0 | 0.0 | 0.00 | 0.32 | 0.21 | 100 | |
| 20260507025121 | 42 | 274 | 0.0 | 0.0 | 0.00 | 0.32 | 0.21 | 100 | |
| 20260507024621 | 42 | 274 | 0.0 | 0.0 | 0.00 | 0.32 | 0.21 | 100 | |
| 20260507024121 | 42 | 274 | 0.0 | 0.0 | 0.00 | 0.32 | 0.21 | 100 | |
| 20260507023621 | 42 | 274 | 0.0 | 0.0 | 0.00 | 0.32 | 0.21 | 100 | |
| 20260507023122 | 42 | 274 | 0.0 | 0.0 | 0.00 | 0.32 | 0.21 | 100 | |
| 20260507022622 | 42 | 274 | 0.0 | 0.0 | 0.00 | 0.32 | 0.21 | 100 | |
| 20260507022121 | 43 | 274 | 0.0 | 0.0 | 0.00 | 0.32 | 0.21 | 100 | |
| 20260507021621 | 44 | 274 | 0.0 | 0.0 | 0.00 | 0.32 | 0.21 | 100 | |
| 20260507021121 | 44 | 274 | 0.0 | 0.0 | 0.00 | 0.32 | 0.21 | 100 | |
| 20260507020720 | 43 | 274 | 0.0 | 0.0 | 0.00 | 0.32 | 0.21 | 100 | |
| 20260507020621 | 43 | 274 | 0.0 | 0.0 | 0.00 | 0.32 | 0.21 | 100 | |
| 20260507020121 | 43 | 274 | 0.0 | 0.0 | 0.00 | 0.32 | 0.21 | 100 | |
| 20260507015621 | 43 | 274 | 0.0 | 0.0 | 0.00 | 0.44 | 0.21 | 100 | |
| 20260507015121 | 43 | 274 | 0.0 | 0.0 | 0.00 | 0.44 | 0.21 | 100 | |
| 20260507014621 | 43 | 274 | 0.0 | 0.0 | 0.00 | 0.44 | 0.21 | 100 | |
| 20260507014123 | 44 | 274 | 0.0 | 0.0 | 0.00 | 0.44 | 0.21 | 100 | |
| 20260507013621 | 44 | 274 | 0.0 | 0.0 | 0.00 | 0.44 | 0.21 | 100 | |
| 20260507013121 | 44 | 274 | 0.0 | 0.0 | 0.00 | 0.44 | 0.21 | 100 | |
| 20260507012623 | 44 | 274 | 0.0 | 0.0 | 0.00 | 0.44 | 0.21 | 100 | |
| 20260507012121 | 45 | 274 | 0.0 | 0.0 | 0.00 | 0.44 | 0.21 | 100 | |
| 20260507011621 | 45 | 274 | 0.0 | 0.0 | 0.00 | 0.44 | 0.21 | 100 | |
| 20260507011121 | 45 | 274 | 0.0 | 0.0 | 0.00 | 0.44 | 0.21 | 100 | |
| 20260507010621 | 45 | 274 | 0.0 | 0.0 | 0.00 | 0.44 | 0.21 | 100 | |
| 20260507010121 | 45 | 274 | 0.0 | 0.0 | 0.00 | 0.44 | 0.21 | 100 | |
| 20260507005621 | 46 | 274 | 0.0 | 0.0 | 0.00 | 0.58 | 0.21 | 100 | |
| 20260507005121 | 46 | 274 | 0.0 | 0.0 | 0.00 | 0.58 | 0.21 | 100 | |
| 20260507004621 | 46 | 274 | 0.0 | 0.0 | 0.00 | 0.58 | 0.21 | 100 | |
| 20260507004122 | 47 | 274 | 0.0 | 0.0 | 0.00 | 0.58 | 0.21 | 100 | |
| 20260507003624 | 48 | 274 | 0.0 | 0.0 | 0.00 | 0.58 | 0.21 | 100 | |
| 20260507003122 | 49 | 274 | 0.0 | 0.0 | 0.00 | 0.58 | 0.21 | 100 | |
| 20260507002622 | 50 | 274 | 0.0 | 4.3 | 0.00 | 0.58 | 0.21 | 100 | |
| 20260507002122 | 50 | 322 | 0.9 | 3.5 | 0.00 | 0.58 | 0.21 | 100 | |
| 20260507001622 | 51 | 316 | 1.7 | 3.5 | 0.00 | 0.58 | 0.21 | 100 | |
| 20260507001122 | 51 | 333 | 2.6 | 3.5 | 0.00 | 0.58 | 0.21 | 100 | |
| 20260507000622 | 53 | 333 | 2.6 | 4.3 | 0.00 | 0.58 | 0.21 | 100 | |
| 20260507000122 | 55 | 341 | 3.5 | 4.3 | 0.00 | 0.58 | 0.21 | 100 | |
| 20260506235622 | 56 | 316 | 2.6 | 6.1 | 0.00 | 0.86 | 0.21 | 100 | |
| 20260506235122 | 56 | 358 | 1.7 | 6.1 | 0.00 | 0.86 | 0.21 | 100 | |
| 20260506234622 | 57 | 292 | 4.3 | 7.0 | 0.00 | 0.86 | 0.21 | 100 | |
| 20260506234122 | 57 | 317 | 4.3 | 7.8 | 0.00 | 0.86 | 0.21 | 100 | |
| 20260506233626 | 59 | 322 | 5.2 | 6.1 | 0.00 | 0.86 | 0.21 | 100 | |
| 20260506233122 | 56 | 315 | 1.7 | 6.1 | 0.00 | 0.86 | 0.21 | 100 | |
| 20260506232622 | 54 | 307 | 6.1 | 6.1 | 0.00 | 0.86 | 0.21 | 100 | |
| 20260506232122 | 54 | 286 | 0.9 | 4.3 | 0.00 | 0.86 | 0.21 | 100 | |
| 20260506231622 | 54 | 310 | 0.0 | 6.1 | 0.00 | 0.86 | 0.21 | 100 | |
| 20260506231122 | 54 | 320 | 2.6 | 5.2 | 0.00 | 0.86 | 0.21 | 100 | |
| 20260506230622 | 54 | 316 | 2.6 | 6.1 | 0.00 | 0.86 | 0.21 | 100 | |
| 20260506230122 | 53 | 305 | 3.5 | 5.2 | 0.00 | 0.86 | 0.21 | 100 | |
| 20260506225622 | 53 | 323 | 1.7 | 7.0 | 0.00 | 0.98 | 0.21 | 100 | |
| 20260506225122 | 54 | 296 | 0.9 | 5.2 | 0.00 | 0.98 | 0.21 | 100 | |
| 20260506224623 | 54 | 330 | 2.6 | 7.0 | 0.00 | 0.98 | 0.21 | 100 | |
| 20260506224123 | 54 | 303 | 7.0 | 7.8 | 0.00 | 0.98 | 0.21 | 100 | |
| 20260506223624 | 54 | 306 | 2.6 | 5.2 | 0.00 | 0.98 | 0.21 | 100 | |
| 20260506223122 | 54 | 320 | 2.6 | 8.7 | 0.00 | 0.98 | 0.21 | 100 | |
| 20260506222624 | 54 | 309 | 2.6 | 6.1 | 0.00 | 0.98 | 0.21 | 100 | |
| 20260506222123 | 54 | 317 | 5.2 | 6.1 | 0.00 | 0.98 | 0.21 | 100 | |
| 20260506221626 | 54 | 307 | 2.6 | 7.8 | 0.00 | 0.98 | 0.21 | 100 | |
| 20260506221122 | 55 | 334 | 2.6 | 7.0 | 0.00 | 0.98 | 0.21 | 100 | |
| 20260506220622 | 56 | 322 | 6.1 | 7.8 | 0.00 | 0.98 | 0.21 | 100 | |
| 20260506220122 | 56 | 312 | 2.6 | 8.7 | 0.00 | 0.98 | 0.21 | 100 | |
| 20260506215622 | 56 | 307 | 3.5 | 7.8 | 0.00 | 1.08 | 0.21 | 100 | |
| 20260506215122 | 56 | 319 | 4.3 | 7.0 | 0.00 | 1.08 | 0.21 | 100 | |
| 20260506214622 | 55 | 337 | 3.5 | 7.8 | 0.00 | 1.08 | 0.21 | 100 | |
| 20260506214122 | 55 | 338 | 4.3 | 8.7 | 0.00 | 1.08 | 0.21 | 100 | |
| 20260506213624 | 55 | 316 | 5.2 | 7.8 | 0.00 | 1.08 | 0.21 | 100 | |
| 20260506213122 | 55 | 334 | 4.3 | 7.8 | 0.00 | 1.08 | 0.21 | 100 | |
| 20260506212622 | 55 | 324 | 7.0 | 7.8 | 0.00 | 1.08 | 0.21 | 100 | |
| 20260506212122 | 55 | 302 | 5.2 | 7.8 | 0.00 | 1.08 | 0.21 | 100 | |
| 20260506211622 | 56 | 288 | 6.1 | 7.8 | 0.00 | 1.08 | 0.21 | 100 | |
| 20260506211123 | 57 | 282 | 7.0 | 7.8 | 0.00 | 1.08 | 0.21 | 100 | |
| 20260506210622 | 57 | 303 | 7.0 | 7.8 | 0.00 | 1.08 | 0.21 | 100 | |
| 20260506210122 | 57 | 298 | 3.5 | 7.8 | 0.00 | 1.08 | 0.21 | 100 | |
| 20260506205626 | 58 | 299 | 3.5 | 7.8 | 0.00 | 1.09 | 0.21 | 100 | |
| 20260506205122 | 57 | 296 | 4.3 | 11.3 | 0.00 | 1.09 | 0.21 | 100 | |
| 20260506204622 | 58 | 310 | 5.2 | 7.8 | 0.00 | 1.09 | 0.21 | 100 | |
| 20260506204122 | 59 | 327 | 1.7 | 7.0 | 0.00 | 1.09 | 0.21 | 100 | |
| 20260506203622 | 58 | 348 | 6.1 | 7.8 | 0.00 | 1.09 | 0.21 | 100 | |
| 20260506203122 | 57 | 281 | 3.5 | 7.0 | 0.00 | 1.09 | 0.21 | 100 | |
| 20260506202622 | 57 | 330 | 4.3 | 9.6 | 0.00 | 1.09 | 0.21 | 100 | |
| 20260506202122 | 57 | 348 | 4.3 | 6.1 | 0.00 | 1.09 | 0.21 | 100 | |
| 20260506201622 | 57 | 293 | 5.2 | 7.0 | 0.00 | 1.09 | 0.21 | 100 | |
| 20260506201123 | 58 | 22 | 2.6 | 7.0 | 0.00 | 1.09 | 0.21 | 100 | |
| 20260506200622 | 58 | 313 | 5.2 | 7.8 | 0.00 | 1.09 | 0.21 | 100 | |
| 20260506200123 | 59 | 338 | 4.3 | 6.1 | 0.00 | 1.09 | 0.21 | 100 | |
| 20260506195622 | 60 | 309 | 4.3 | 6.1 | 0.00 | 1.20 | 0.21 | 100 | |
| 20260506195402 | 59 | 52 | 1.7 | 4.3 | 0.00 | 1.20 | 0.21 | 100 | |
| 20260506195123 | 59 | 52 | 1.7 | 4.3 | 0.00 | 1.20 | 0.21 | 100 | |
| 20260506194622 | 59 | 296 | 1.7 | 6.1 | 0.00 | 1.20 | 0.21 | 100 | |
| 20260506194122 | 58 | 16 | 3.5 | 5.2 | 0.00 | 1.20 | 0.21 | 100 | |
| 20260506193622 | 57 | 307 | 0.0 | 6.1 | 0.00 | 1.20 | 0.21 | 100 | |
| 20260506193122 | 56 | 322 | 3.5 | 7.0 | 0.00 | 1.20 | 0.21 | 100 | |
| 20260506192622 | 57 | 306 | 3.5 | 7.0 | 0.00 | 1.20 | 0.21 | 100 | |
| 20260506192122 | 57 | 338 | 1.7 | 6.1 | 0.00 | 1.20 | 0.21 | 100 | |
| 20260506191622 | 57 | 279 | 0.0 | 6.1 | 0.00 | 1.20 | 0.21 | 100 | |
| 20260506191122 | 56 | 296 | 5.2 | 7.0 | 0.00 | 1.20 | 0.21 | 100 | |
| 20260506190622 | 56 | 329 | 2.6 | 7.8 | 0.00 | 1.20 | 0.21 | 100 | |
| 20260506190122 | 57 | 337 | 3.5 | 6.1 | 0.00 | 1.20 | 0.21 | 100 | |
| 20260506185623 | 56 | 310 | 5.2 | 8.7 | 0.00 | 1.29 | 0.21 | 100 | |
| 20260506185122 | 56 | 316 | 2.6 | 7.0 | 0.00 | 1.29 | 0.21 | 100 | |
| 20260506184622 | 56 | 270 | 2.6 | 7.8 | 0.00 | 1.29 | 0.21 | 100 | |
| 20260506184122 | 56 | 285 | 7.8 | 7.8 | 0.00 | 1.29 | 0.21 | 100 | |
| 20260506183622 | 57 | 326 | 1.7 | 7.0 | 0.00 | 1.29 | 0.21 | 100 | |
| 20260506183122 | 58 | 2 | 4.3 | 6.1 | 0.00 | 1.29 | 0.21 | 100 | |
| 20260506182622 | 57 | 327 | 6.1 | 8.7 | 0.00 | 1.29 | 0.21 | 100 | |
| 20260506182123 | 58 | 302 | 6.1 | 7.0 | 0.00 | 1.29 | 0.21 | 100 | |
| 20260506181625 | 58 | 352 | 0.9 | 7.8 | 0.00 | 1.29 | 0.21 | 100 | |
| 20260506181122 | 58 | 286 | 5.2 | 8.7 | 0.00 | 1.29 | 0.21 | 100 | |
| 20260506180122 | 56 | 299 | 5.2 | 7.8 | 0.00 | 1.29 | 0.21 | 100 | |
| 20260506175622 | 56 | 302 | 7.8 | 9.6 | 0.00 | 1.34 | 0.21 | 100 | |
| 20260506175122 | 56 | 32 | 0.9 | 7.0 | 0.00 | 1.34 | 0.21 | 100 | |
| 20260506174622 | 57 | 279 | 2.6 | 7.0 | 0.00 | 1.34 | 0.21 | 100 | |
| 20260506174122 | 57 | 285 | 4.3 | 8.7 | 0.00 | 1.34 | 0.21 | 100 | |
| 20260506173623 | 58 | 292 | 1.7 | 7.8 | 0.00 | 1.34 | 0.21 | 100 | |
| 20260506173122 | 60 | 298 | 4.3 | 6.1 | 0.00 | 1.34 | 0.21 | 100 | |
| 20260506172622 | 62 | 11 | 2.6 | 7.8 | 0.00 | 1.34 | 0.21 | 100 | |
| 20260506172123 | 61 | 313 | 5.2 | 7.8 | 0.00 | 1.34 | 0.21 | 100 | |
| 20260506171623 | 62 | 333 | 6.1 | 8.7 | 0.00 | 1.34 | 0.21 | 100 | |
| 20260506171123 | 61 | 323 | 2.6 | 9.6 | 0.00 | 1.34 | 0.21 | 100 | |
| 20260506170624 | 62 | 341 | 4.3 | 7.8 | 0.00 | 1.34 | 0.21 | 100 | |
| 20260506170125 | 62 | 15 | 4.3 | 10.4 | 0.00 | 1.34 | 0.21 | 100 | |
| 20260506165622 | 65 | 309 | 7.8 | 9.6 | 0.00 | 1.35 | 0.21 | 100 | |
| 20260506165122 | 68 | 341 | 5.2 | 7.8 | 0.00 | 1.35 | 0.21 | 100 | |
| 20260506164622 | 65 | 300 | 5.2 | 8.7 | 0.00 | 1.35 | 0.21 | 100 | |
| 20260506164122 | 67 | 344 | 4.3 | 10.4 | 0.00 | 1.35 | 0.21 | 100 | |
| 20260506163622 | 67 | 46 | 2.6 | 9.6 | 0.00 | 1.35 | 0.21 | 100 | |
| 20260506163122 | 64 | 303 | 2.6 | 9.6 | 0.00 | 1.35 | 0.21 | 100 | |
| 20260506162623 | 63 | 302 | 8.7 | 10.4 | 0.00 | 1.35 | 0.21 | 100 | |
| 20260506162122 | 70 | 317 | 0.9 | 6.1 | 0.00 | 1.35 | 0.21 | 100 | |
| 20260506161625 | 64 | 8 | 6.1 | 6.1 | 0.00 | 1.35 | 0.21 | 100 | |
| 20260506161122 | 63 | 310 | 3.5 | 11.3 | 0.00 | 1.35 | 0.21 | 100 | |
| 20260506160623 | 62 | 341 | 9.6 | 9.6 | 0.00 | 1.35 | 0.21 | 100 | |
| 20260506160125 | 67 | 291 | 7.0 | 8.7 | 0.00 | 1.35 | 0.21 | 100 | |
| 20260506155622 | 63 | 323 | 7.0 | 9.6 | 0.00 | 1.35 | 0.21 | 100 | |
| 20260506155122 | 65 | 85 | 1.7 | 7.8 | 0.00 | 1.35 | 0.21 | 100 | |
| 20260506154622 | 60 | 299 | 3.5 | 9.6 | 0.00 | 1.35 | 0.21 | 100 | |
| 20260506154122 | 65 | 295 | 6.1 | 7.0 | 0.00 | 1.35 | 0.21 | 100 | |
| 20260506153623 | 61 | 298 | 7.0 | 11.3 | 0.00 | 1.35 | 0.21 | 100 | |
| 20260506153122 | 64 | 296 | 7.0 | 8.7 | 0.00 | 1.35 | 0.21 | 100 | |
| 20260506152622 | 62 | 300 | 5.2 | 10.4 | 0.00 | 1.35 | 0.21 | 100 | |
| 20260506152122 | 59 | 312 | 6.1 | 8.7 | 0.00 | 1.35 | 0.21 | 100 | |
| 20260506151656 | 59 | 18 | 0.0 | 7.8 | 0.00 | 1.35 | 0.21 | 100 | |
| 20260506151622 | 59 | 18 | 0.0 | 7.8 | 0.00 | 1.35 | 0.21 | 100 | |
| 20260506151122 | 56 | 351 | 0.0 | 7.8 | 0.00 | 1.35 | 0.21 | 100 | |
| 20260506150622 | 57 | 1 | 6.1 | 8.7 | 0.00 | 1.35 | 0.21 | 100 | |
| 20260506150122 | 56 | 289 | 5.2 | 7.0 | 0.00 | 1.35 | 0.21 | 100 | |
| 20260506145622 | 57 | 8 | 0.9 | 7.0 | 0.00 | 1.35 | 0.21 | 100 | |
| 20260506145125 | 57 | 37 | 3.5 | 7.8 | 0.00 | 1.35 | 0.21 | 100 | |
| 20260506144622 | 57 | 296 | 2.6 | 7.0 | 0.00 | 1.35 | 0.21 | 100 | |
| 20260506144123 | 55 | 348 | 3.5 | 7.0 | 0.00 | 1.35 | 0.21 | 100 | |
| 20260506143622 | 56 | 316 | 5.2 | 9.6 | 0.00 | 1.35 | 0.21 | 100 | |
| 20260506143122 | 58 | 334 | 5.2 | 6.1 | 0.00 | 1.35 | 0.21 | 100 | |
| 20260506142622 | 63 | 357 | 0.0 | 7.8 | 0.00 | 1.35 | 0.21 | 100 | |
| 20260506142122 | 63 | 344 | 2.6 | 8.7 | 0.00 | 1.35 | 0.21 | 100 | |
| 20260506141623 | 62 | 358 | 1.7 | 9.6 | 0.00 | 1.35 | 0.21 | 100 | |
| 20260506141123 | 59 | 329 | 5.2 | 9.6 | 0.00 | 1.35 | 0.21 | 100 | |
| 20260506140623 | 62 | 324 | 6.1 | 8.7 | 0.00 | 1.35 | 0.21 | 100 | |
| 20260506140124 | 61 | 319 | 5.2 | 9.6 | 0.00 | 1.35 | 0.21 | 100 | |
| 20260506135623 | 61 | 293 | 3.5 | 9.6 | 0.00 | 1.35 | 0.21 | 100 | |
| 20260506135123 | 63 | 315 | 4.3 | 7.0 | 0.00 | 1.35 | 0.21 | 100 | |
| 20260506134623 | 62 | 286 | 5.2 | 8.7 | 0.00 | 1.35 | 0.21 | 100 | |
| 20260506134123 | 61 | 277 | 3.5 | 7.0 | 0.00 | 1.35 | 0.21 | 100 | |
| 20260506133623 | 56 | 317 | 2.6 | 7.8 | 0.00 | 1.35 | 0.21 | 100 | |
| 20260506133123 | 54 | 319 | 3.5 | 7.0 | 0.00 | 1.35 | 0.21 | 100 | |
| 20260506132623 | 53 | 19 | 3.5 | 7.8 | 0.00 | 1.35 | 0.21 | 100 | |
| 20260506132126 | 53 | 43 | 1.7 | 8.7 | 0.00 | 1.35 | 0.21 | 100 | |
| 20260506131623 | 53 | 317 | 3.5 | 6.1 | 0.00 | 1.35 | 0.21 | 100 | |
| 20260506131123 | 52 | 336 | 3.5 | 7.0 | 0.00 | 1.35 | 0.21 | 100 | |
| 20260506130623 | 54 | 315 | 0.9 | 6.1 | 0.00 | 1.35 | 0.21 | 100 | |
| 20260506130123 | 52 | 320 | 5.2 | 5.2 | 0.00 | 1.35 | 0.21 | 100 | |
| 20260506125624 | 52 | 351 | 1.7 | 7.0 | 0.00 | 1.35 | 0.21 | 100 | |
| 20260506125123 | 49 | 315 | 5.2 | 6.1 | 0.00 | 1.35 | 0.21 | 100 | |
| 20260506124623 | 49 | 316 | 2.6 | 6.1 | 0.00 | 1.35 | 0.21 | 100 | |
| 20260506124123 | 49 | 306 | 6.1 | 6.1 | 0.00 | 1.35 | 0.21 | 100 | |
| 20260506123624 | 48 | 327 | 4.3 | 6.1 | 0.00 | 1.35 | 0.21 | 100 | |
| 20260506123123 | 48 | 329 | 1.7 | 5.2 | 0.00 | 1.35 | 0.21 | 100 | |
| 20260506122623 | 48 | 341 | 1.7 | 3.5 | 0.00 | 1.35 | 0.21 | 100 | |
| 20260506122123 | 47 | 352 | 0.0 | 4.3 | 0.00 | 1.35 | 0.21 | 100 | |
| 20260506121623 | 46 | 277 | 0.9 | 5.2 | 0.00 | 1.35 | 0.21 | 100 | |
| 20260506121123 | 46 | 5 | 0.9 | 6.1 | 0.00 | 1.35 | 0.21 | 100 | |
| 20260506120623 | 45 | 324 | 3.5 | 5.2 | 0.00 | 1.35 | 0.21 | 100 | |
| 20260506120124 | 45 | 15 | 1.7 | 3.5 | 0.00 | 1.35 | 0.21 | 100 | |
| 20260506115623 | 45 | 348 | 2.6 | 5.2 | 0.00 | 1.35 | 0.21 | 100 | |
| 20260506115123 | 45 | 319 | 1.7 | 3.5 | 0.00 | 1.35 | 0.21 | 100 | |
| 20260506114623 | 45 | 330 | 1.7 | 5.2 | 0.00 | 1.35 | 0.21 | 100 | |
| 20260506114123 | 44 | 7 | 1.7 | 2.6 | 0.00 | 1.35 | 0.21 | 100 | |
| 20260506113623 | 44 | 8 | 0.9 | 2.6 | 0.00 | 1.35 | 0.21 | 100 | |
| 20260506113123 | 44 | 347 | 1.7 | 4.3 | 0.00 | 1.35 | 0.21 | 100 | |
| 20260506112623 | 44 | 334 | 0.0 | 3.5 | 0.00 | 1.35 | 0.21 | 100 | |
| 20260506112123 | 44 | 288 | 0.0 | 2.6 | 0.00 | 1.35 | 0.21 | 100 | |
| 20260506111623 | 44 | 306 | 0.9 | 3.5 | 0.00 | 1.35 | 0.21 | 100 | |
| 20260506111124 | 43 | 320 | 0.0 | 2.6 | 0.00 | 1.35 | 0.21 | 100 | |
| 20260506110623 | 43 | 336 | 0.9 | 4.3 | 0.00 | 1.35 | 0.21 | 100 | |
| 20260506110123 | 43 | 337 | 1.7 | 1.7 | 0.00 | 1.35 | 0.21 | 100 | |
| 20260506105623 | 43 | 4 | 0.0 | 4.3 | 0.00 | 1.35 | 0.21 | 100 | |
| 20260506105123 | 43 | 351 | 0.9 | 2.6 | 0.00 | 1.35 | 0.21 | 100 | |
| 20260506104623 | 43 | 354 | 1.7 | 3.5 | 0.00 | 1.35 | 0.21 | 100 | |
| 20260506104123 | 43 | 5 | 1.7 | 3.5 | 0.00 | 1.35 | 0.21 | 100 | |
| 20260506103623 | 43 | 18 | 2.6 | 4.3 | 0.00 | 1.35 | 0.21 | 100 | |
| 20260506103123 | 42 | 343 | 0.0 | 7.8 | 0.00 | 1.35 | 0.21 | 100 | |
| 20260506102623 | 42 | 16 | 6.1 | 6.1 | 0.00 | 1.35 | 0.21 | 100 | |
| 20260506102123 | 42 | 337 | 0.9 | 2.6 | 0.00 | 1.35 | 0.21 | 100 | |
| 20260506101623 | 42 | 18 | 0.9 | 2.6 | 0.00 | 1.35 | 0.21 | 100 | |
| 20260506101123 | 42 | 9 | 0.0 | 7.0 | 0.00 | 1.35 | 0.21 | 100 | |
| 20260506100623 | 42 | 307 | 1.7 | 4.3 | 0.00 | 1.35 | 0.21 | 100 | |
| 20260506100125 | 42 | 9 | 1.7 | 5.2 | 0.00 | 1.35 | 0.21 | 100 | |
| 20260506095623 | 42 | 350 | 0.0 | 6.1 | 0.00 | 1.35 | 0.21 | 100 | |
| 20260506095123 | 42 | 9 | 3.5 | 6.1 | 0.00 | 1.35 | 0.21 | 100 | |
| 20260506094625 | 42 | 347 | 1.7 | 6.1 | 0.00 | 1.35 | 0.21 | 100 |